Showing default

JUPITER 3 (ECHOSTAR 24), 57479

Orbit data source: Space-Track

JUPITER 3 (ECHOSTAR 24), 57479 is an American payload satellite in GEO that was launched on Sat, 29 Jul 2023 UTC via an FALCON HEAVY launch vehicle from the Air Force Eastern Test Range (AFETR). Payloads include a variety of satellites, spacecraft, and rockets equipped with specific instruments for various scientific and technological missions. These include communications satellites like Starlink; space stations such as the ISS; scientific satellites like the Hubble; Earth observation satellites from companies like Planet Labs, Umbra, and HawkEye 360; GPS; miniature CubeSats for education and research; and military/defense satellites.

Loading next visibility...
JUPITER 3 (ECHOSTAR 24) details
Identifier
57479, 2023-108A
Orbit
GEO
Last TLE update2 days ago
Origin
Flag of USEHNS/ECHOC (US)
ManufacturerMaxar Space Sol
MissionOperational Commercial Communications
Bus & MotorSSL-1300, SPT-100
Mass9,200 kg wet, ~5,817 kg dry
Launch date (UTC)
2023-07-29 (1 year ago)
Launch vehicle
FALCON HEAVY
Launch site
Air Force Eastern Test Range (AFETR)
Object type
Payload
Rocket body
Debris
Shape & HBRBox + 2 Pan, 38.7 m
Radar Cross Section56.895 m², Large (>1 m²)

Expand to show TLE details & history

TLE from 2 days ago
0 JUPITER 3 (ECHOSTAR 24)
1 57479U 23108A   24355.01700240 -.00000142  00000-0  00000-0 0  9997
2 57479   0.0218   6.1220 0001342 245.9051 107.9583  1.00270136  5189
Epoch: 2024-12-20T00:24Z
Definitive object data (Epoch: 2024-12-20T00:24:29.007Z)
Latitude-0.00379°
Longitude-95.20496°
Altitude35,788.286 km
Speed3.075 km/s
True Right ascension00h 00m 01s
True Declination0° 00' 14"
Sunlit
Object was in daylight at TLE epoch
Visualization TLE readout
Latitude0.00192°
Longitude86.87166°
Altitude35,784.665 km
Speed3.075 km/s
Apparent Right ascension12h 13m 28s
Apparent Declination-6° 13' 07"
Sunlit
Object is in daylight
Visualization observer readout
Local Sidereal Time11:28:49
Azimuth164.812° S
Elevation42.73°
Doppler factor1
Orbital elements
Apogee altitude35,793.786 km
Perigee altitude35,782.469 km
Semi-major axis42,166.265 km
Eccentricity0.0001342
Inclination0.0218°
RAAN6.122°
Arg. of periapsis245.9051°
True anomaly107.97293°
Mean anomaly107.9583°
Eccentric anomaly107.96561°
Mean motion0.25067 °/min
BSTARUnknown
Orbital period1436.17 mins
Loading historical data...
57479 neighbors
Authenticating...
Loading maneuver chart data...
Loading historical data...
Loading historical data...
Loading historical data...
Loading historical data...
Loading historical data...
Loading historical data...
Loading historical data...
Other satellites on launch #108 in the year 2023 (2023-07-29 UTC)

JUPITER 3 (ECHOSTAR 24) Visibility forecast

Observer location: undefined°, undefined

Span
Click to sort rows by Start time (UTC) header in descending order
Start Az.
Max El. time (UTC)
Max El. Az.
Max El.
End time (UTC)
End Az.
1440 mins2024-12-21 12:27:01.796Z164.818° S2024-12-22 07:21:01.796Z164.808° S34.173°2024-12-22 12:27:01.796Z164.831° S
|